This demonstration page uses our WeatherBlox Daily Observations layout. Learn more.

Left ArrowRight Arrow

39.51506, -84.39828

Hourly Observations for January 27, 2015

Temp ( °F °C ) Dew Point ( °F °C ) Humidity (%) Winds ( mph kmh ) Pressure ( in mb ) Visibility ( mi km ) Precip ( " mm )
12:15 am 00:15 Cloudy 21 -6.3 14 -10.2 74 74 E 3 6 30.00 1016 10 16 0.00 0.00
12:35 am 00:35 Cloudy 21 -6.3 14 -10.2 74 74 E 3 6 30.00 1016 10 16 0.00 0.00
12:55 am 00:55 Cloudy 21 -6.3 14 -10 75 75 E 3 6 30.00 1016 10 16 0.00 0.00
1:15 am 01:15 Cloudy 21 -6.3 14 -10 75 75 ENE 3 6 30.00 1016 10 16 0.00 0.00
1:35 am 01:35 Cloudy 21 -6.3 14 -10 75 75 Calm 29.97 1015 10 16 0.00 0.00
1:55 am 01:55 Cloudy 21 -6.3 14 -10.1 75 75 E 5 7 29.97 1015 10 16 0.00 0.00
2:15 am 02:15 Cloudy 21 -6.3 14 -10.2 74 74 E 3 6 30.00 1016 10 16 0.00 0.00
2:35 am 02:35 Cloudy 21 -6.3 13 -10.5 72 72 ENE 6 9 30.00 1016 10 16 0.00 0.00
2:55 am 02:55 Cloudy 21 -6.3 12 -10.9 70 70 ENE 5 7 30.00 1016 10 16 0.00 0.00
3:15 am 03:15 Cloudy 21 -6.3 13 -10.6 72 72 ENE 5 7 30.00 1016 10 16 0.00 0.00
3:35 am 03:35 Cloudy 21 -6.3 13 -10.5 72 72 E 6 9 30.00 1016 10 16 0.00 0.00
3:55 am 03:55 Cloudy 20 -6.5 13 -10.6 73 73 ENE 5 7 30.00 1016 10 16 0.00 0.00
4:15 am 04:15 Cloudy 21 -6.3 13 -10.6 72 72 ENE 5 7 30.00 1016 10 16 0.00 0.00
4:35 am 04:35 Cloudy 20 -6.7 12 -11 72 72 ENE 6 9 30.00 1016 10 16 0.00 0.00
4:55 am 04:55 Mostly Cloudy 19 -7 12 -11 73 73 NE 3 6 30.00 1016 10 16 0.00 0.00
5:15 am 05:15 Partly Cloudy 19 -7 13 -10.8 75 75 ENE 5 7 30.00 1016 10 16 0.00 0.00
5:35 am 05:35 Partly Cloudy 18 -7.8 12 -11.3 76 76 NE 5 7 30.03 1017 10 16 0.00 0.00
5:55 am 05:55 Mostly Cloudy 19 -7 13 -10.5 76 76 NNE 5 7 30.03 1017 10 16 0.00 0.00
6:15 am 06:15 Cloudy 18 -8 12 -11.3 77 77 NE 6 9 30.06 1018 10 16 0.00 0.00
6:35 am 06:35 Cloudy 17 -8.5 11 -11.4 80 80 NNE 5 7 30.06 1018 10 16 0.00 0.00
6:55 am 06:55 Mostly Cloudy 17 -8.1 12 -10.9 81 81 Calm 30.09 1019 10 16 0.00 0.00
7:15 am 07:15 Partly Cloudy 17 -8.5 12 -11.1 82 82 NNE 3 6 30.09 1019 10 16 0.00 0.00
7:35 am 07:35 Partly Cloudy 17 -8.5 12 -11 82 82 Calm 30.09 1019 10 16 0.00 0.00
7:55 am 07:55 Sunny 17 -8.5 12 -11 82 82 Calm 30.12 1020 10 16 0.00 0.00
8:15 am 08:15 Sunny 17 -8.5 12 -11.2 81 81 Calm 30.12 1020 10 16 0.00 0.00
8:35 am 08:35 Sunny 19 -7 13 -10.4 77 77 NE 3 6 30.15 1021 10 16 0.00 0.00
8:55 am 08:55 Sunny 19 -7 13 -10.6 76 76 NNE 5 7 30.15 1021 10 16 0.00 0.00
9:15 am 09:15 Sunny 19 -7 13 -10.8 75 75 ENE 3 6 30.15 1021 10 16 0.00 0.00
9:35 am 09:35 Sunny 19 -7 12 -11 73 73 NE 5 7 30.15 1021 10 16 0.00 0.00
9:55 am 09:55 Mostly Cloudy 20 -6.8 12 -11.1 72 72 NNE 5 7 30.15 1021 10 16 0.00 0.00
10:15 am 10:15 Partly Cloudy 20 -6.7 12 -11 72 72 ENE 3 6 30.15 1021 10 16 0.00 0.00
10:35 am 10:35 Sunny 22 -5.6 13 -10.8 67 67 Calm 30.15 1021 10 16 0.00 0.00
10:55 am 10:55 Sunny 23 -5 12 -10.9 64 64 ENE 3 6 30.15 1021 10 16 0.00 0.00
11:15 am 11:15 Sunny 23 -4.9 13 -10.8 64 64 ENE 5 7 30.15 1021 10 16 0.00 0.00
11:35 am 11:35 Sunny 24 -4.2 13 -10.6 61 61 Calm 30.15 1021 10 16 0.00 0.00
11:55 am 11:55 Sunny 27 -2.8 14 -9.8 59 59 NE 3 6 30.15 1021 10 16 0.00 0.00
12:15 pm 12:15 Sunny 27 -2.8 14 -10 58 58 NE 7 11 30.15 1021 10 16 0.00 0.00
12:35 pm 12:35 Sunny 27 -2.8 14 -10.2 57 57 NE 7 11 30.15 1021 10 16 0.00 0.00
12:55 pm 12:55 Sunny 29 -1.7 15 -9.3 57 57 NE 6 9 30.15 1021 10 16 0.00 0.00
1:15 pm 13:15 Partly Cloudy 29 -1.5 16 -9 57 57 NE 7 11 30.15 1021 10 16 0.00 0.00
1:35 pm 13:35 Partly Cloudy 29 -1.5 16 -9.1 57 57 NNE 3 6 30.15 1021 10 16 0.00 0.00
1:55 pm 13:55 Sunny 29 -1.5 15 -9.5 55 55 N 5 7 30.15 1021 10 16 0.00 0.00
2:15 pm 14:15 Sunny 29 -1.5 13 -10.5 51 51 N 8 13 30.15 1021 10 16 0.00 0.00
2:35 pm 14:35 Sunny 29 -1.5 14 -9.9 53 53 N 6 9 30.15 1021 10 16 0.00 0.00
2:55 pm 14:55 Sunny 29 -1.5 15 -9.7 54 54 NW 7 11 30.15 1021 10 16 0.00 0.00
3:15 pm 15:15 Sunny 29 -1.5 15 -9.7 54 54 NNW 10 17 30.18 1022 10 16 0.00 0.00
3:35 pm 15:35 Sunny 29 -1.5 15 -9.7 54 54 N 8 13 30.18 1022 10 16 0.00 0.00
3:55 pm 15:55 Partly Cloudy 29 -1.5 15 -9.4 55 55 NNW 7 11 30.18 1022 10 16 0.00 0.00
4:15 pm 16:15 Partly Cloudy 27 -2.8 12 -11.2 53 53 NNW 8 13 30.18 1022 10 16 0.00 0.00
4:35 pm 16:35 Sunny 27 -2.8 12 -11 54 54 N 9 15 30.21 1023 10 16 0.00 0.00
4:55 pm 16:55 Sunny N/A N/A N/A N 9 15 N/A 10 16 0.00 0.00
5:15 pm 17:15 Sunny 27 -2.8 14 -10.1 58 58 N 8 13 30.21 1023 10 16 0.00 0.00
5:35 pm 17:35 Sunny 24 -4.2 12 -11 60 60 N 7 11 30.21 1023 10 16 0.00 0.00
5:55 pm 17:55 Clear 24 -4.2 13 -10.5 62 62 N 7 11 30.24 1024 10 16 0.00 0.00
6:15 pm 18:15 Clear 23 -5 12 -10.9 64 64 N 6 9 30.24 1024 10 16 0.00 0.00
6:35 pm 18:35 Clear 22 -5.5 12 -11 66 66 N 6 9 30.24 1024 10 16 0.00 0.00
6:55 pm 18:55 Clear N/A N/A N/A undefined N/A N/A 10 16 0.00 0.00
7:15 pm 19:15 Clear 22 -5.8 13 -10.8 68 68 N 3 6 30.30 1026 10 16 0.00 0.00
7:35 pm 19:35 Clear 21 -6.3 12 -11.2 69 69 Calm 30.30 1026 10 16 0.00 0.00
7:55 pm 19:55 Clear 19 -7 12 -10.9 74 74 Calm 30.30 1026 10 16 0.00 0.00
8:15 pm 20:15 Clear 18 -7.7 13 -10.8 79 79 Calm 30.30 1026 10 16 0.00 0.00
8:35 pm 20:35 Clear 18 -8 13 -10.3 84 84 Calm 30.33 1027 10 16 0.00 0.00
8:55 pm 20:55 Clear 17 -8.1 13 -10.6 82 82 Calm 30.33 1027 7 11 0.00 0.00
9:15 pm 21:15 Clear with Mist and Fog 15 -9.2 11 -11.5 84 84 Calm 30.33 1027 5 8 0.00 0.00
9:35 pm 21:35 Clear 17 -8.5 13 -10.6 85 85 Calm 30.33 1027 7 11 0.00 0.00
9:55 pm 21:55 Clear with Mist and Fog 17 -8.5 13 -10.5 86 86 Calm 30.33 1027 5 8 0.00 0.00
10:15 pm 22:15 Clear with Mist and Fog 16 -9.1 12 -11.3 84 84 Calm 30.33 1027 5 8 0.00 0.00
10:35 pm 22:35 Clear 16 -8.9 12 -11.1 84 84 Calm 30.33 1027 7 11 0.00 0.00
10:55 pm 22:55 Clear with Mist and Fog 14 -9.8 10 -12 84 84 Calm 30.33 1027 4 6 0.00 0.00
11:15 pm 23:15 Clear with Mist and Fog 14 -9.8 10 -12 84 84 Calm 30.33 1027 4 6 0.00 0.00
11:35 pm 23:35 Clear 14 -9.8 10 -12 84 84 Calm 30.33 1027 7 11 0.00 0.00
11:55 pm 23:55 Clear 14 -9.8 10 -12.1 83 83 Calm 30.33 1027 7 11 0.00 0.00

Powered by AerisWeather